RYR95DX LGSK-LOWW

Flight info

Callsign RYR95DX
Flight time 1h 35m
Altitude 36000
Route TSL UL617 MAKED DCT LONTA UM749 UDVAR DCT NANER DCT BABIT DCT NATEX NATEX2W
Aircraft B738/M-SDE2E3FGHIRWXY/LB1

Departure

Time 2026-04-24 12:30
Airport Skiathos Island National Airport (LGSK)

Arrival

Time 2026-04-24 14:05
Airport Vienna International Airport (LOWW)
Time Latitude Longitude Altitude Speed Heading
2026-04-24 11:40 39.17950 23.50258 101 ft 0 kts 288°
2026-04-24 12:22 39.17948 23.50267 99 ft 2 kts 289°
2026-04-24 12:22 39.17944 23.50285 97 ft 2 kts 288°
2026-04-24 12:22 39.17939 23.50303 94 ft 1 kts 288°
2026-04-24 12:23 39.17936 23.50315 92 ft 2 kts 273°
2026-04-24 12:23 39.17939 23.50333 91 ft 2 kts 237°
2026-04-24 12:23 39.17950 23.50346 91 ft 1 kts 205°
2026-04-24 12:23 39.17955 23.50349 92 ft 1 kts 196°
2026-04-24 12:24 39.17959 23.50350 92 ft 0 kts 198°
2026-04-24 12:26 39.17958 23.50350 92 ft 0 kts 198°
2026-04-24 12:26 39.17931 23.50339 89 ft 7 kts 198°
2026-04-24 12:26 39.17876 23.50314 85 ft 10 kts 200°
2026-04-24 12:26 39.17801 23.50279 79 ft 12 kts 200°
2026-04-24 12:27 39.17705 23.50250 69 ft 15 kts 190°
2026-04-24 12:27 39.17626 23.50219 62 ft 9 kts 199°
2026-04-24 12:27 39.17556 23.50263 53 ft 16 kts 130°
2026-04-24 12:27 39.17471 23.50259 44 ft 15 kts 202°
2026-04-24 12:28 39.17342 23.50197 33 ft 23 kts 199°
2026-04-24 12:28 39.17191 23.50132 25 ft 22 kts 199°
2026-04-24 12:28 39.17070 23.50088 20 ft 12 kts 175°
2026-04-24 12:28 39.17035 23.50051 19 ft 5 kts 323°
2026-04-24 12:29 39.17060 23.50066 20 ft 4 kts 44°
2026-04-24 12:29 39.17105 23.50093 21 ft 24 kts 18°
2026-04-24 12:29 39.17545 23.50288 52 ft 106 kts 19°
2026-04-24 12:29 39.18469 23.50703 131 ft 168 kts 18°
2026-04-24 12:30 39.19561 23.51192 919 ft 170 kts 19°
2026-04-24 12:30 39.20654 23.51713 1732 ft 170 kts 20°
2026-04-24 12:30 39.21827 23.52269 2083 ft 191 kts 20°
2026-04-24 12:30 39.23140 23.52887 2461 ft 213 kts 20°
2026-04-24 12:31 39.24611 23.53454 2954 ft 228 kts
2026-04-24 12:31 39.26179 23.53079 3588 ft 239 kts 338°
2026-04-24 12:31 39.27733 23.52313 4435 ft 245 kts 343°
2026-04-24 12:31 39.29401 23.51629 5049 ft 262 kts 343°
2026-04-24 12:32 39.31136 23.50880 5966 ft 266 kts 343°
2026-04-24 12:32 39.32903 23.50105 6766 ft 274 kts 342°
2026-04-24 12:32 39.34701 23.49310 7652 ft 278 kts 342°
2026-04-24 12:32 39.36535 23.48497 8485 ft 283 kts 342°
2026-04-24 12:33 39.38389 23.47673 9316 ft 287 kts 342°
2026-04-24 12:33 39.40277 23.46833 10123 ft 292 kts 342°
2026-04-24 12:33 39.42234 23.45963 10577 ft 310 kts 342°
2026-04-24 12:33 39.44347 23.45024 10850 ft 332 kts 342°
2026-04-24 12:34 39.46605 23.44018 11212 ft 350 kts 342°
2026-04-24 12:34 39.48903 23.42991 11905 ft 356 kts 342°
2026-04-24 12:34 39.51266 23.41934 12509 ft 365 kts 342°
2026-04-24 12:34 39.53668 23.40859 13252 ft 368 kts 342°
2026-04-24 12:35 39.55284 23.40136 13688 ft 372 kts 342°
2026-04-24 12:35 39.58563 23.38668 14574 ft 378 kts 342°
2026-04-24 12:35 39.59436 23.38277 14806 ft 379 kts 342°
2026-04-24 12:35 39.61235 23.37466 15358 ft 380 kts 342°
2026-04-24 12:36 39.63727 23.36333 16035 ft 382 kts 343°
2026-04-24 12:36 39.66230 23.35211 16666 ft 385 kts 343°
2026-04-24 12:36 39.68790 23.34069 17289 ft 389 kts 343°
2026-04-24 12:36 39.71339 23.32927 17886 ft 392 kts 343°
2026-04-24 12:37 39.73937 23.31760 18476 ft 395 kts 343°
2026-04-24 12:37 39.76510 23.30603 19036 ft 397 kts 343°
2026-04-24 12:37 39.79151 23.29414 19594 ft 400 kts 343°
2026-04-24 12:37 39.81760 23.28238 20124 ft 403 kts 343°
2026-04-24 12:38 39.84421 23.27037 20646 ft 406 kts 343°
2026-04-24 12:38 39.87119 23.25818 21154 ft 409 kts 343°
2026-04-24 12:38 39.89800 23.24606 21650 ft 411 kts 343°
2026-04-24 12:39 39.97953 23.20913 23050 ft 418 kts 343°
2026-04-24 12:39 40.00697 23.19668 23484 ft 421 kts 343°
2026-04-24 12:39 40.03475 23.18406 23914 ft 423 kts 343°
2026-04-24 12:40 40.06229 23.17153 24324 ft 425 kts 343°
2026-04-24 12:40 40.09053 23.15868 24737 ft 427 kts 343°
2026-04-24 12:40 40.11822 23.14607 25125 ft 429 kts 343°
2026-04-24 12:40 40.14655 23.13315 25522 ft 431 kts 343°
2026-04-24 12:41 40.17479 23.12026 25888 ft 433 kts 343°
2026-04-24 12:41 40.20338 23.10720 26254 ft 435 kts 343°
2026-04-24 12:41 40.23190 23.09416 26618 ft 437 kts 343°
2026-04-24 12:41 40.26088 23.08090 26959 ft 439 kts 344°
2026-04-24 12:42 40.28976 23.06767 27295 ft 440 kts 344°
2026-04-24 12:42 40.31892 23.05431 27621 ft 442 kts 344°
2026-04-24 12:42 40.34788 23.04102 27954 ft 444 kts 344°
2026-04-24 12:42 40.37717 23.02757 28250 ft 445 kts 344°
2026-04-24 12:43 40.40647 23.01410 28568 ft 447 kts 344°
2026-04-24 12:43 40.43575 23.00037 28833 ft 449 kts 342°
2026-04-24 12:43 40.46441 22.98418 29125 ft 453 kts 337°
2026-04-24 12:43 40.49239 22.96514 29441 ft 454 kts 335°
2026-04-24 12:44 40.52033 22.94568 29750 ft 455 kts 335°
2026-04-24 12:44 40.54836 22.92628 30094 ft 454 kts 336°
2026-04-24 12:44 40.57627 22.90693 30432 ft 453 kts 335°
2026-04-24 12:44 40.60435 22.88736 30775 ft 452 kts 335°
2026-04-24 12:45 40.63200 22.86805 31113 ft 451 kts 335°
2026-04-24 12:45 40.65974 22.84863 31446 ft 450 kts 335°
2026-04-24 12:45 40.68732 22.82929 31797 ft 449 kts 335°
2026-04-24 12:45 40.71484 22.80996 32127 ft 447 kts 336°
2026-04-24 12:46 40.74224 22.79068 32446 ft 446 kts 335°
2026-04-24 12:46 40.76982 22.77125 32766 ft 445 kts 336°
2026-04-24 12:46 40.79694 22.75213 33066 ft 444 kts 336°
2026-04-24 12:46 40.82392 22.73308 33397 ft 442 kts 336°
2026-04-24 12:47 40.85107 22.71388 33690 ft 441 kts 336°
2026-04-24 12:47 40.87771 22.69504 33976 ft 440 kts 336°
2026-04-24 12:47 40.90450 22.67606 34253 ft 439 kts 336°
2026-04-24 12:47 40.93131 22.65706 34500 ft 438 kts 336°
2026-04-24 12:48 40.95826 22.63794 34770 ft 437 kts 336°
2026-04-24 12:48 40.98482 22.61908 35014 ft 437 kts 336°
2026-04-24 12:48 41.01166 22.60001 35249 ft 436 kts 336°
2026-04-24 12:48 41.03813 22.58118 35481 ft 436 kts 336°
2026-04-24 12:49 41.06485 22.56216 35729 ft 435 kts 336°
2026-04-24 12:49 41.09160 22.54310 35939 ft 435 kts 335°
2026-04-24 12:49 41.11766 22.52323 36024 ft 438 kts 331°
2026-04-24 12:50 41.16631 22.47482 36020 ft 437 kts 326°
2026-04-24 12:50 41.21372 22.42502 36020 ft 433 kts 326°
2026-04-24 12:51 41.26059 22.37554 36020 ft 434 kts 326°
2026-04-24 12:51 41.30772 22.32541 36021 ft 435 kts 325°
2026-04-24 12:52 41.35479 22.27507 36020 ft 435 kts 325°
2026-04-24 12:52 41.40212 22.22430 36020 ft 435 kts 325°
2026-04-24 12:53 41.44904 22.17382 36020 ft 435 kts 325°
2026-04-24 12:53 41.49590 22.12330 36020 ft 435 kts 325°
2026-04-24 12:54 41.54288 22.07254 36020 ft 435 kts 325°
2026-04-24 12:54 41.58960 22.02195 36020 ft 435 kts 325°
2026-04-24 12:55 41.63670 21.97086 36020 ft 435 kts 325°
2026-04-24 12:55 41.68373 21.91973 36020 ft 435 kts 325°
2026-04-24 12:56 41.73033 21.86898 36020 ft 435 kts 325°
2026-04-24 12:56 41.77718 21.81786 36020 ft 435 kts 325°
2026-04-24 12:57 41.82381 21.76688 36020 ft 435 kts 325°
2026-04-24 12:57 41.87046 21.71577 36019 ft 435 kts 325°
2026-04-24 12:58 41.91725 21.66440 36020 ft 435 kts 325°
2026-04-24 12:58 41.96399 21.61301 36020 ft 435 kts 325°
2026-04-24 12:59 42.01090 21.56133 36020 ft 435 kts 325°
2026-04-24 12:59 42.05738 21.51001 36020 ft 435 kts 325°
2026-04-24 13:00 42.10393 21.45850 36020 ft 435 kts 325°
2026-04-24 13:00 42.15289 21.41046 36019 ft 430 kts 334°
2026-04-24 13:01 42.20725 21.37964 36022 ft 423 kts 348°
2026-04-24 13:01 42.26365 21.35895 36020 ft 423 kts 348°
2026-04-24 13:02 42.32018 21.33788 36020 ft 423 kts 348°
2026-04-24 13:02 42.37669 21.31689 36020 ft 423 kts 348°
2026-04-24 13:03 42.43324 21.29590 36020 ft 423 kts 348°
2026-04-24 13:03 42.48977 21.27491 36020 ft 423 kts 348°
2026-04-24 13:04 42.54649 21.25382 36020 ft 423 kts 348°
2026-04-24 13:04 42.60279 21.23286 36020 ft 423 kts 348°
2026-04-24 13:05 42.65942 21.21175 36020 ft 423 kts 348°
2026-04-24 13:05 42.71596 21.19063 36020 ft 423 kts 348°
2026-04-24 13:06 42.77248 21.16948 36020 ft 423 kts 348°
2026-04-24 13:06 42.82904 21.14827 36020 ft 423 kts 348°
2026-04-24 13:07 42.88559 21.12703 36020 ft 423 kts 348°
2026-04-24 13:07 42.94224 21.10571 36020 ft 423 kts 348°
2026-04-24 13:08 42.99882 21.08437 36020 ft 423 kts 348°
2026-04-24 13:08 43.05551 21.06296 36020 ft 423 kts 348°
2026-04-24 13:09 43.13819 21.02230 36021 ft 428 kts 337°
2026-04-24 13:09 43.19108 20.98488 36020 ft 429 kts 336°
2026-04-24 13:10 43.24413 20.94739 36020 ft 429 kts 336°
2026-04-24 13:10 43.29710 20.90955 36020 ft 429 kts 336°
2026-04-24 13:11 43.34973 20.87174 36019 ft 429 kts 336°
2026-04-24 13:11 43.40238 20.83375 36020 ft 429 kts 336°
2026-04-24 13:12 43.45502 20.79565 36020 ft 429 kts 336°
2026-04-24 13:12 43.50781 20.75735 36020 ft 429 kts 336°
2026-04-24 13:13 43.56054 20.71900 36020 ft 429 kts 336°
2026-04-24 13:13 43.61324 20.68060 36020 ft 429 kts 336°
2026-04-24 13:14 43.66582 20.64220 36020 ft 429 kts 336°
2026-04-24 13:14 43.71856 20.60360 36020 ft 429 kts 336°
2026-04-24 13:15 43.77085 20.56526 36020 ft 429 kts 336°
2026-04-24 13:15 43.82361 20.52649 36020 ft 429 kts 336°
2026-04-24 13:16 43.87613 20.48783 36020 ft 429 kts 336°
2026-04-24 13:16 43.92867 20.44916 36019 ft 429 kts 336°
2026-04-24 13:17 43.98130 20.41077 36020 ft 429 kts 336°
2026-04-24 13:17 44.03399 20.37222 36019 ft 428 kts 336°
2026-04-24 13:18 44.08685 20.33345 36020 ft 429 kts 336°
2026-04-24 13:18 44.13952 20.29473 36020 ft 430 kts 336°
2026-04-24 13:19 44.19236 20.25579 36019 ft 429 kts 336°
2026-04-24 13:19 44.23288 20.22590 36019 ft 429 kts 336°
2026-04-24 13:20 44.28202 20.18958 36020 ft 429 kts 336°
2026-04-24 13:20 44.33478 20.15051 36020 ft 429 kts 336°
2026-04-24 13:21 44.38756 20.11134 36020 ft 429 kts 336°
2026-04-24 13:21 44.44036 20.07209 36020 ft 429 kts 336°
2026-04-24 13:22 44.49295 20.03291 36019 ft 429 kts 336°
2026-04-24 13:22 44.54552 19.99365 36020 ft 429 kts 336°
2026-04-24 13:23 44.59806 19.95435 36020 ft 429 kts 336°
2026-04-24 13:23 44.65064 19.91493 36019 ft 429 kts 336°
2026-04-24 13:24 44.70286 19.87570 36020 ft 429 kts 336°
2026-04-24 13:24 44.75554 19.83605 36020 ft 429 kts 336°
2026-04-24 13:25 44.80808 19.79641 36020 ft 429 kts 336°
2026-04-24 13:25 44.86060 19.75672 36020 ft 429 kts 336°
2026-04-24 13:26 44.91292 19.71709 36020 ft 429 kts 336°
2026-04-24 13:26 44.96526 19.67736 36020 ft 429 kts 336°
2026-04-24 13:27 45.01769 19.63748 36020 ft 429 kts 336°
2026-04-24 13:27 45.07041 19.59729 36019 ft 429 kts 336°
2026-04-24 13:28 45.12252 19.55749 36020 ft 429 kts 336°
2026-04-24 13:28 45.17534 19.51706 36020 ft 429 kts 336°
2026-04-24 13:29 45.22749 19.47706 36020 ft 429 kts 336°
2026-04-24 13:29 45.27991 19.43676 36020 ft 429 kts 336°
2026-04-24 13:30 45.33227 19.39644 36020 ft 429 kts 336°
2026-04-24 13:30 45.38451 19.35611 36020 ft 430 kts 336°
2026-04-24 13:31 45.43713 19.31539 36020 ft 430 kts 335°
2026-04-24 13:31 45.48989 19.27447 36020 ft 430 kts 335°
2026-04-24 13:32 45.54213 19.23386 36019 ft 429 kts 335°
2026-04-24 13:32 45.59419 19.19332 36020 ft 429 kts 335°
2026-04-24 13:33 45.64684 19.15225 36020 ft 429 kts 335°
2026-04-24 13:33 45.69887 19.11156 36020 ft 429 kts 335°
2026-04-24 13:34 45.75119 19.07057 36020 ft 430 kts 335°
2026-04-24 13:34 45.80349 19.02951 36020 ft 430 kts 335°
2026-04-24 13:35 45.85598 18.98820 36019 ft 429 kts 335°
2026-04-24 13:35 45.90807 18.94712 36019 ft 429 kts 335°
2026-04-24 13:36 45.96034 18.90640 36020 ft 429 kts 336°
2026-04-24 13:36 46.01337 18.86636 36020 ft 429 kts 336°
2026-04-24 13:37 46.06605 18.82633 36020 ft 429 kts 336°
2026-04-24 13:37 46.11866 18.78626 36020 ft 429 kts 336°
2026-04-24 13:38 46.17103 18.74626 36020 ft 429 kts 336°
2026-04-24 13:38 46.22358 18.70603 36020 ft 429 kts 336°
2026-04-24 13:39 46.27623 18.66563 36020 ft 429 kts 336°
2026-04-24 13:39 46.32887 18.62514 36020 ft 429 kts 336°
2026-04-24 13:40 46.38124 18.58477 36019 ft 429 kts 336°
2026-04-24 13:40 46.43369 18.54424 36020 ft 429 kts 336°
2026-04-24 13:41 46.48619 18.50361 36019 ft 429 kts 336°
2026-04-24 13:41 46.51272 18.48304 35710 ft 434 kts 336°
2026-04-24 13:41 46.53912 18.46256 35243 ft 434 kts 336°
2026-04-24 13:42 46.56562 18.44194 34764 ft 431 kts 336°
2026-04-24 13:42 46.59199 18.42139 34285 ft 427 kts 336°
2026-04-24 13:42 46.61798 18.40114 33813 ft 427 kts 336°
2026-04-24 13:42 46.64410 18.38078 33334 ft 428 kts 336°
2026-04-24 13:43 46.66998 18.36059 32859 ft 429 kts 336°
2026-04-24 13:43 46.69659 18.33983 32384 ft 435 kts 335°
2026-04-24 13:43 46.72328 18.31898 31910 ft 439 kts 335°
2026-04-24 13:43 46.75034 18.29780 31431 ft 441 kts 335°
2026-04-24 13:44 46.77730 18.27666 30956 ft 442 kts 335°
2026-04-24 13:44 46.80399 18.25572 30486 ft 443 kts 335°
2026-04-24 13:44 46.83126 18.23430 30008 ft 444 kts 335°
2026-04-24 13:44 46.85877 18.21267 29525 ft 445 kts 335°
2026-04-24 13:45 46.88622 18.19106 29045 ft 445 kts 335°
2026-04-24 13:45 46.91347 18.16958 28571 ft 448 kts 335°
2026-04-24 13:45 46.94120 18.14773 28092 ft 452 kts 335°
2026-04-24 13:45 46.96901 18.12577 27615 ft 455 kts 335°
2026-04-24 13:46 46.99659 18.10396 27143 ft 457 kts 335°
2026-04-24 13:46 47.02446 18.08188 26667 ft 457 kts 334°
2026-04-24 13:46 47.05236 18.05976 26191 ft 457 kts 334°
2026-04-24 13:46 47.08062 18.03732 25709 ft 458 kts 334°
2026-04-24 13:47 47.10835 18.01528 25237 ft 458 kts 334°
2026-04-24 13:47 47.13648 17.99290 24758 ft 458 kts 334°
2026-04-24 13:47 47.16463 17.97047 24277 ft 457 kts 334°
2026-04-24 13:47 47.19226 17.94842 23803 ft 454 kts 334°
2026-04-24 13:48 47.21977 17.92644 23327 ft 451 kts 334°
2026-04-24 13:48 47.24724 17.90445 22850 ft 448 kts 334°
2026-04-24 13:48 47.27472 17.88244 22369 ft 445 kts 334°
2026-04-24 13:48 47.30150 17.86098 21898 ft 443 kts 334°
2026-04-24 13:49 47.32855 17.83927 21420 ft 440 kts 334°
2026-04-24 13:49 47.35502 17.81799 20949 ft 437 kts 334°
2026-04-24 13:49 47.38174 17.79649 20471 ft 435 kts 334°
2026-04-24 13:49 47.40813 17.77523 19995 ft 432 kts 334°
2026-04-24 13:50 47.43441 17.75404 19519 ft 429 kts 334°
2026-04-24 13:50 47.46042 17.73304 19044 ft 427 kts 333°
2026-04-24 13:50 47.48622 17.71217 18569 ft 424 kts 333°
2026-04-24 13:50 47.51188 17.69141 18095 ft 421 kts 333°
2026-04-24 13:51 47.53756 17.67060 17617 ft 418 kts 333°
2026-04-24 13:51 47.56269 17.65021 17146 ft 416 kts 333°
2026-04-24 13:51 47.58811 17.62957 16666 ft 412 kts 333°
2026-04-24 13:51 47.61256 17.60966 16174 ft 390 kts 333°
2026-04-24 13:52 47.63546 17.59098 15702 ft 368 kts 333°
2026-04-24 13:52 47.65725 17.57321 15287 ft 350 kts 333°
2026-04-24 13:52 47.67054 17.56239 15083 ft 352 kts 333°
2026-04-24 13:52 47.68649 17.54941 14834 ft 355 kts 333°
2026-04-24 13:53 47.70815 17.53166 14480 ft 355 kts 331°
2026-04-24 13:53 47.72770 17.50910 14127 ft 369 kts 313°
2026-04-24 13:53 47.74140 17.47524 13791 ft 390 kts 293°
2026-04-24 13:53 47.75025 17.43885 13431 ft 389 kts 289°
2026-04-24 13:54 47.75690 17.41035 13154 ft 382 kts 289°
2026-04-24 13:54 47.76597 17.37404 12758 ft 369 kts 290°
2026-04-24 13:54 47.77502 17.33917 12382 ft 360 kts 289°
2026-04-24 13:54 47.78424 17.30334 12011 ft 370 kts 289°
2026-04-24 13:55 47.79342 17.26743 11639 ft 374 kts 289°
2026-04-24 13:55 47.80258 17.23148 11243 ft 371 kts 289°
2026-04-24 13:55 47.81161 17.19592 10737 ft 367 kts 289°
2026-04-24 13:55 47.82039 17.16122 10243 ft 363 kts 289°
2026-04-24 13:56 47.82917 17.12640 9744 ft 360 kts 289°
2026-04-24 13:56 47.83757 17.09183 9246 ft 356 kts 287°
2026-04-24 13:56 47.84481 17.05649 8733 ft 350 kts 286°
2026-04-24 13:56 47.85173 17.02266 8226 ft 332 kts 287°
2026-04-24 13:57 47.85847 16.99058 7724 ft 316 kts 287°
2026-04-24 13:57 47.86494 16.96009 7225 ft 304 kts 287°
2026-04-24 13:57 47.87111 16.93088 6728 ft 293 kts 287°
2026-04-24 13:57 47.87703 16.90270 6240 ft 280 kts 288°
2026-04-24 13:58 47.88275 16.87564 5827 ft 267 kts 288°
2026-04-24 13:58 47.88824 16.84955 5422 ft 256 kts 288°
2026-04-24 13:58 47.89330 16.82494 5085 ft 246 kts 288°
2026-04-24 13:58 47.89829 16.80098 4809 ft 236 kts 288°
2026-04-24 13:59 47.90311 16.77813 4554 ft 227 kts 288°
2026-04-24 13:59 47.90762 16.75592 4312 ft 222 kts 289°
2026-04-24 13:59 47.91218 16.73446 4133 ft 215 kts 289°
2026-04-24 13:59 47.91518 16.72016 4026 ft 210 kts 289°
2026-04-24 14:00 47.92091 16.69315 3823 ft 203 kts 288°
2026-04-24 14:00 47.92514 16.67304 3670 ft 204 kts 294°
2026-04-24 14:00 47.93361 16.65688 3471 ft 198 kts 329°
2026-04-24 14:00 47.94653 16.65094 3301 ft 189 kts 347°
2026-04-24 14:01 47.95873 16.64600 3117 ft 177 kts 343°
2026-04-24 14:01 47.97058 16.64105 2980 ft 177 kts 343°
2026-04-24 14:01 47.98200 16.63629 2761 ft 163 kts 341°
2026-04-24 14:01 47.99205 16.63202 2559 ft 140 kts 342°
2026-04-24 14:02 48.00143 16.62808 2399 ft 143 kts 341°
2026-04-24 14:02 48.01133 16.62392 2184 ft 149 kts 341°
2026-04-24 14:02 48.02113 16.61979 1976 ft 145 kts 341°
2026-04-24 14:02 48.03064 16.61576 1793 ft 139 kts 344°
2026-04-24 14:03 48.03995 16.61185 1596 ft 140 kts 344°
2026-04-24 14:03 48.04939 16.60793 1406 ft 141 kts 342°
2026-04-24 14:03 48.05827 16.60413 1227 ft 141 kts 342°
2026-04-24 14:03 48.06781 16.60013 1005 ft 141 kts 342°
2026-04-24 14:04 48.07712 16.59616 835 ft 141 kts 341°
2026-04-24 14:04 48.08666 16.59221 661 ft 141 kts 344°
2026-04-24 14:04 48.09520 16.58854 597 ft 107 kts 343°
2026-04-24 14:04 48.10033 16.58641 600 ft 63 kts 344°
2026-04-24 14:05 48.10407 16.58483 600 ft 47 kts 345°
2026-04-24 14:05 48.10688 16.58361 599 ft 36 kts 345°
2026-04-24 14:05 48.10914 16.58264 597 ft 27 kts 335°
2026-04-24 14:05 48.11029 16.58100 597 ft 20 kts 301°
2026-04-24 14:06 48.11091 16.57920 597 ft 19 kts 295°
2026-04-24 14:06 48.11155 16.57727 597 ft 23 kts 296°
2026-04-24 14:06 48.11228 16.57500 600 ft 23 kts 296°
2026-04-24 14:06 48.11302 16.57268 604 ft 24 kts 297°
2026-04-24 14:07 48.11367 16.57075 606 ft 19 kts 296°
2026-04-24 14:07 48.11417 16.56919 606 ft 15 kts 296°
2026-04-24 14:07 48.11462 16.56779 605 ft 15 kts 297°
2026-04-24 14:07 48.11508 16.56639 603 ft 15 kts 297°
2026-04-24 14:08 48.11556 16.56495 600 ft 16 kts 296°
2026-04-24 14:08 48.11616 16.56308 593 ft 23 kts 296°
2026-04-24 14:08 48.11691 16.56082 588 ft 22 kts 296°
2026-04-24 14:08 48.11752 16.55890 585 ft 18 kts 296°
2026-04-24 14:09 48.11807 16.55721 583 ft 18 kts 296°
2026-04-24 14:09 48.11861 16.55553 583 ft 16 kts 297°
2026-04-24 14:09 48.11919 16.55457 583 ft 10 kts
2026-04-24 14:09 48.11960 16.55445 583 ft 5 kts 305°
2026-04-24 14:10 48.11972 16.55414 583 ft 4 kts 295°
2026-04-24 14:10 48.11975 16.55403 583 ft 0 kts 295°